• In Czech Republic
  • List of Countries
  • For 7 days
  • Water Temperature
  • Satellite Maps
  • Weather Map
  • Weather Widgets
  • user-avatar
    Login

    Hourly Weather Bojsi

    Today, 22 October, Sunday

    Time Temperature Precipitation Wind Pressure Humidity
    00:00 +8°C° 0.3 mm 3 mps 690 mmHg 86%
    01:00 +8°C° 0.3 mm 3 mps 690 mmHg 86%
    02:00 +8°C° 0.3 mm 3 mps 690 mmHg 85%
    03:00 +8°C° 0.3 mm 3 mps 691 mmHg 84%
    04:00 +9°C° 0.3 mm 3 mps 691 mmHg 84%
    05:00 +9°C° 0.6 mm 3 mps 691 mmHg 84%
    06:00 +9°C° 0.6 mm 3 mps 691 mmHg 84%
    07:00 +8°C° 0.6 mm 4 mps 691 mmHg 84%
    08:00 +10°C° 0.3 mm 4 mps 691 mmHg 81%
    09:00 +11°C° 0.3 mm 3 mps 692 mmHg 78%
    10:00 +11°C° 0.3 mm 3 mps 692 mmHg 75%
    11:00 +12°C° 0.2 mm 3 mps 692 mmHg 74%
    12:00 +13°C° 0.2 mm 3 mps 692 mmHg 72%
    13:00 +14°C° 0.2 mm 2 mps 692 mmHg 70%
    14:00 +14°C° 0.3 mm 2 mps 692 mmHg 73%
    15:00 +13°C° 0.3 mm 2 mps 692 mmHg 76%
    16:00 +13°C° 0.3 mm 2 mps 693 mmHg 79%
    17:00 +13°C° 0 mm 2 mps 693 mmHg 80%
    18:00 +12°C° 0 mm 2 mps 694 mmHg 82%
    19:00 +12°C° 0 mm 2 mps 694 mmHg 83%
    20:00 +10°C° 0 mm 2 mps 695 mmHg 85%
    21:00 +10°C° 0 mm 2 mps 695 mmHg 86%
    22:00 +9°C° 0 mm 2 mps 696 mmHg 87%
    23:00 +9°C° 0 mm 2 mps 696 mmHg 88%

    Tomorrow, 23 October, Monday

    Time Temperature Precipitation Wind Pressure Humidity
    00:00 +9°C° 0 mm 2 mps 696 mmHg 89%
    01:00 +9°C° 0 mm 1 mps 697 mmHg 90%
    02:00 +8°C° 0 mm 2 mps 697 mmHg 90%
    03:00 +8°C° 0 mm 2 mps 697 mmHg 90%
    04:00 +7°C° 0 mm 2 mps 697 mmHg 91%
    05:00 +8°C° 0 mm 1 mps 698 mmHg 90%
    06:00 +8°C° 0 mm 1 mps 698 mmHg 89%
    07:00 +8°C° 0 mm 1 mps 699 mmHg 88%
    08:00 +10°C° 0 mm 1 mps 699 mmHg 81%
    09:00 +12°C° 0 mm 1 mps 700 mmHg 73%
    10:00 +14°C° 0 mm 1 mps 700 mmHg 66%
    11:00 +15°C° 0 mm 1 mps 700 mmHg 62%
    12:00 +15°C° 0 mm 2 mps 700 mmHg 58%
    13:00 +16°C° 0 mm 2 mps 700 mmHg 55%
    14:00 +16°C° 0 mm 2 mps 700 mmHg 57%
    15:00 +15°C° 0 mm 2 mps 700 mmHg 59%
    16:00 +15°C° 0 mm 2 mps 699 mmHg 62%
    17:00 +13°C° 0 mm 2 mps 700 mmHg 65%
    18:00 +12°C° 0 mm 2 mps 700 mmHg 69%
    19:00 +10°C° 0 mm 2 mps 700 mmHg 73%
    20:00 +9°C° 0 mm 2 mps 700 mmHg 73%
    21:00 +9°C° 0 mm 2 mps 700 mmHg 72%
    22:00 +10°C° 0 mm 1 mps 700 mmHg 72%
    23:00 +9°C° 0 mm 1 mps 700 mmHg 71%

    Day after tomorrow, 24 October, Tuesday

    Time Temperature Precipitation Wind Pressure Humidity
    00:00 +9°C° 0 mm 1 mps 700 mmHg 71%
    01:00 +9°C° 0 mm 1 mps 699 mmHg 71%
    02:00 +8°C° 0 mm 1 mps 699 mmHg 71%
    03:00 +8°C° 0 mm 1 mps 699 mmHg 70%
    04:00 +8°C° 0 mm 1 mps 699 mmHg 70%
    05:00 +8°C° 0 mm 1 mps 699 mmHg 69%
    06:00 +8°C° 0 mm 1 mps 699 mmHg 67%
    07:00 +9°C° 0 mm 1 mps 699 mmHg 66%
    08:00 +11°C° 0 mm 1 mps 699 mmHg 60%
    09:00 +13°C° 0 mm 1 mps 699 mmHg 53%
    10:00 +14°C° 0 mm 0 mps 700 mmHg 47%
    11:00 +15°C° 0 mm 0 mps 699 mmHg 45%
    12:00 +18°C° 0 mm 1 mps 699 mmHg 43%
    13:00 +19°C° 0 mm 1 mps 698 mmHg 41%
    14:00 +18°C° 0 mm 1 mps 698 mmHg 45%
    15:00 +16°C° 0 mm 0 mps 697 mmHg 49%
    16:00 +15°C° 0 mm 0 mps 697 mmHg 53%
    17:00 +14°C° 0 mm 0 mps 696 mmHg 57%
    18:00 +13°C° 0 mm 1 mps 696 mmHg 61%
    19:00 +12°C° 0 mm 1 mps 696 mmHg 65%
    20:00 +11°C° 0 mm 1 mps 696 mmHg 66%
    21:00 +11°C° 0 mm 1 mps 695 mmHg 68%
    22:00 +11°C° 0 mm 1 mps 695 mmHg 69%
    23:00 +10°C° 0 mm 1 mps 695 mmHg 70%

    25 October, Wednesday

    Time Temperature Precipitation Wind Pressure Humidity
    00:00 +10°C° 0 mm 1 mps 694 mmHg 70%
    01:00 +10°C° 0 mm 1 mps 694 mmHg 70%
    02:00 +10°C° 0 mm 1 mps 693 mmHg 70%
    03:00 +9°C° 0 mm 1 mps 693 mmHg 70%
    04:00 +9°C° 0 mm 1 mps 692 mmHg 70%
    05:00 +9°C° 0 mm 1 mps 692 mmHg 68%
    06:00 +9°C° 0 mm 1 mps 692 mmHg 66%
    07:00 +10°C° 0 mm 1 mps 692 mmHg 64%
    08:00 +12°C° 0 mm 1 mps 692 mmHg 57%
    09:00 +15°C° 0 mm 1 mps 692 mmHg 49%
    10:00 +16°C° 0 mm 0 mps 692 mmHg 42%
    11:00 +19°C° 0 mm 1 mps 691 mmHg 40%
    12:00 +20°C° 0 mm 1 mps 690 mmHg 38%
    13:00 +21°C° 0 mm 1 mps 690 mmHg 36%
    14:00 +19°C° 0 mm 2 mps 689 mmHg 40%
    15:00 +18°C° 0 mm 2 mps 689 mmHg 44%
    16:00 +17°C° 0 mm 2 mps 688 mmHg 48%
    17:00 +16°C° 0 mm 2 mps 688 mmHg 52%
    18:00 +14°C° 0 mm 1 mps 688 mmHg 55%
    19:00 +13°C° 0 mm 1 mps 688 mmHg 59%
    20:00 +12°C° 0 mm 1 mps 688 mmHg 59%
    21:00 +12°C° 0 mm 1 mps 688 mmHg 59%
    22:00 +12°C° 0 mm 1 mps 688 mmHg 59%
    23:00 +12°C° 0 mm 1 mps 688 mmHg 60%

    26 October, Thursday

    Time Temperature Precipitation Wind Pressure Humidity
    00:00 +12°C° 0 mm 2 mps 688 mmHg 60%
    01:00 +12°C° 0 mm 2 mps 688 mmHg 60%
    02:00 +10°C° 0 mm 2 mps 688 mmHg 61%
    03:00 +10°C° 0 mm 2 mps 688 mmHg 62%
    04:00 +10°C° 0 mm 2 mps 688 mmHg 64%
    05:00 +10°C° 0 mm 2 mps 688 mmHg 65%
    06:00 +10°C° 0 mm 2 mps 689 mmHg 66%
    07:00 +10°C° 0 mm 2 mps 689 mmHg 67%
    08:00 +13°C° 0 mm 2 mps 689 mmHg 62%
    09:00 +15°C° 0 mm 2 mps 690 mmHg 58%
    10:00 +17°C° 0 mm 3 mps 690 mmHg 53%
    11:00 +18°C° 0 mm 3 mps 690 mmHg 51%
    12:00 +19°C° 0 mm 3 mps 690 mmHg 48%
    13:00 +20°C° 0 mm 3 mps 690 mmHg 46%
    14:00 +19°C° 0 mm 2 mps 690 mmHg 48%
    15:00 +18°C° 0 mm 2 mps 690 mmHg 50%
    16:00 +18°C° 0 mm 2 mps 690 mmHg 53%
    17:00 +16°C° 0 mm 1 mps 690 mmHg 57%
    18:00 +14°C° 0 mm 1 mps 690 mmHg 61%
    19:00 +13°C° 0 mm 1 mps 690 mmHg 66%
    20:00 +13°C° 0 mm 1 mps 690 mmHg 67%
    21:00 +12°C° 0 mm 1 mps 690 mmHg 67%
    22:00 +12°C° 0 mm 1 mps 690 mmHg 68%
    23:00 +11°C° 0 mm 1 mps 690 mmHg 69%

    27 October, Friday

    Time Temperature Precipitation Wind Pressure Humidity
    00:00 +11°C° 0 mm 1 mps 690 mmHg 69%
    01:00 +11°C° 0 mm 1 mps 690 mmHg 70%
    02:00 +10°C° 0 mm 1 mps 690 mmHg 70%
    03:00 +10°C° 0 mm 1 mps 689 mmHg 71%
    04:00 +10°C° 0 mm 1 mps 689 mmHg 71%
    05:00 +10°C° 0 mm 1 mps 689 mmHg 70%
    06:00 +10°C° 0 mm 1 mps 690 mmHg 68%
    07:00 +10°C° 0 mm 1 mps 690 mmHg 67%
    08:00 +12°C° 0 mm 1 mps 690 mmHg 59%
    09:00 +14°C° 0 mm 1 mps 690 mmHg 52%
    10:00 +18°C° 0 mm 1 mps 691 mmHg 45%
    11:00 +18°C° 0 mm 1 mps 690 mmHg 42%
    12:00 +19°C° 0 mm 1 mps 690 mmHg 39%
    13:00 +20°C° 0 mm 1 mps 690 mmHg 37%
    14:00 +19°C° 0 mm 1 mps 690 mmHg 40%
    15:00 +18°C° 0 mm 1 mps 689 mmHg 43%
    16:00 +18°C° 0 mm 1 mps 689 mmHg 46%
    17:00 +15°C° 0 mm 1 mps 689 mmHg 49%
    18:00 +14°C° 0 mm 1 mps 689 mmHg 52%
    19:00 +12°C° 0 mm 1 mps 689 mmHg 55%
    20:00 +12°C° 0 mm 1 mps 689 mmHg 56%
    21:00 +12°C° 0 mm 1 mps 689 mmHg 57%
    22:00 +12°C° 0 mm 1 mps 688 mmHg 58%
    23:00 +11°C° 0 mm 1 mps 688 mmHg 59%
    Show more